Ernesto Cortissoz International Airport
SKBQ : rendu visible

Aérodrome :











RETROUVEZ-NOUS SUR...

 
LOGIN :

S'inscrire | Disclaimer

   EN    FR    IT 

 









Légende :    VFR   VFR Marginal   IFR   IFR Intensif   IFR Très Intensif
Visi : 
Plafond : 
>= 8 km
>= 3000ft
5 à 8 km
1000 à 3000 ft
1500m à 5 km
500 à 1000 ft
800 à 1500m
200 à 500 ft
< 800m
< 200 ft
Symboles :   Orages  Brouillard  Fortes neiges  Fortes précipitations  Vent > 20 kt






- Altitude de l'aérodrome : 98 ft
- Code IATA : BAQ


SKBQ - Ernesto Cortissoz International

DERNIER METAR :
  • 042000Z 35008KT 300V020 9999 FEW015 31/23 Q1008 NOSIG RMK A2979

METARs EXPIRÉS :
  • 041900Z 35007KT 310V030 9999 FEW015 31/23 Q1009 NOSIG RMK A2980
  • 041800Z VRB03KT 9999 SCT015 32/24 Q1010 NOSIG RMK A2983

TAF TAF SKBQ
Valide du 04 à 18h jusqu'au 05 à 18h UTC


041630Z 0418/0518 01006KT 9999 FEW015
PROB40
TEMPO 0510/0512 BKN010 TX31/0516Z TN24/0510Z
FIR SKEC / Amérique du Sud



MET'MAP, la Météo Aéronautique d'un coup d'oeil ! - Copyright ORBIFLY Décembre 2007 - Disclaimer

ORBIFLY MET'MAP TEAM :

Programmation & Développement : Alexandra Zaïnal
Sur une idée originale de : Baudouin d'Aumeries
Assistance à la programmation : Marc-Olivier Méhu
Soutien technique & logistique : Manuel Goepfert

Contact : metmap@orbifly.com




SOURCES & CREDITS :

   NOAA       Earth
Advisory